Location: Seattle
(47.6064°N, 122.3308°W)
Time: 01:16:52
(UTC-08:00)

CZ-6A DEB - Pass Details

Date: 15 December 2023
Orbit: 679 x 823 km, 98.7° (Epoch: 23 February)

Event Time Altitude Azimuth Distance (km) Brightness Sun altitude
Rises 07:00:50 0° 16° (NNE) 3,286 ? -8.1°
Reaches altitude 10° 07:03:13 10° 18° (NNE) 2,329 ? -7.7°
Maximum altitude 07:08:20 72° 103° (ESE) 789 ? -7.0°
Drops below altitude 10° 07:13:11 10° 188° (S) 2,211 ? -6.2°
Sets 07:15:24 0° 190° (S) 3,106 ? -5.9°
